Regional Weather Roundup
Issued by NWS

Home | Current Version | Previous Version | Graphics & Text | Print | Product List | Glossary On
Versions: 1 2 3 4 5 6 7 8 9 10 11 12 13 14 15 16 17 18 19 20 21 22 23 24 25 26 27 28 29 30 31 32 33 34 35 36 37 38 39 40 41 42 43 44 45 46 47 48 49 50
415
ASUS43 KFSD 231402
RWRSD

WEATHER ROUNDUP FOR SOUTH DAKOTA
NATIONAL WEATHER SERVICE SIOUX FALLS SD
900 AM CDT SAT JUL 23 2016

NOTE: "FAIR" INDICATES FEW OR NO CLOUDS BELOW 12,000 FEET WITH NO
SIGNIFICANT WEATHER AND/OR OBSTRUCTIONS TO VISIBILITY.


SDZ001>005-009-010-012>017-231500-
NORTHWEST AND NORTH CENTRAL SOUTH DAKOTA

CITY           SKY/WX    TMP DP  RH WIND       PRES   REMARKS
BUFFALO          N/A     74  61  63 NW31G37   29.80R
FAITH            N/A     73  68  84 SW13      29.79S
MOBRIDGE       CLOUDY    77  68  73 SE14      29.69R
$$

SDZ012>016-024>037-041>051-057-063-072>074-231500-
SOUTHWEST AND SOUTH CENTRAL SOUTH DAKOTA

CITY           SKY/WX    TMP DP  RH WIND       PRES   REMARKS
RAPID CTY ARPT SUNNY     77  59  53 N7        29.86R
PIERRE         SUNNY     80  73  79 E9        29.75S
CUSTER         SUNNY     75  47  36 W7        30.01S
ELLSWORTH AFB  SUNNY     76  58  53 N20       29.85R
PHILIP         CLOUDY    81  64  56 SW10      29.78R
PINE RIDGE     SUNNY     77  63  61 W12       29.87R
WINNER         FAIR      78  64  61 SW3       29.81R
$$

SDZ004>011-016>023-039-040-231500-
NORTHEAST SOUTH DAKOTA

CITY           SKY/WX    TMP DP  RH WIND       PRES   REMARKS
ABERDEEN       CLOUDY    75  69  81 SE9       29.72F
WATERTOWN      RAIN      69  67  93 SE10      29.81F
BROOKINGS      RAIN      69  67  93 E7        29.85S
SISSETON         N/A     72  70  93 SE13      29.76F
$$

SDZ017-020-022-023-036>040-048>070-231500-
SOUTHEAST SOUTH DAKOTA

CITY           SKY/WX    TMP DP  RH WIND       PRES   REMARKS
SIOUX FALLS    LGT RAIN  73  70  90 NE6       29.85R
HURON          CLOUDY    72  69  90 SE6       29.78R
CHAMBERLAIN    CLOUDY    76  73  88 SE8       29.80R
MITCHELL       CLOUDY    73  70  90 E9        29.79S
YANKTON        CLOUDY    75  70  83 SE8       29.84R
$$

ABBREVIATIONS USED IN REMARKS
   TC - TEMPERATURE IN CELSIUS
  WCI - WIND CHILL INDEX
   HX - HEAT INDEX
  VSB - VISIBILITY





USA.gov is the U.S. government's official web portal to all federal, state and local government web resources and services.